View from above orbital plane
|
View from above satellite
|
Ground track
|
The orbit data is extracted from the following two-line orbital elements,
1 25544U 98067A 21066.99829593 .00001269 00000-0 31140-4 0 9990
2 25544 51.6449 123.2095 0003367 80.6848 344.2239 15.49049044272914
Epoch (UTC): | 07 March 2021 23:57:32 |
Eccentricity: | 0.0003367 |
inclination: | 51.6449° |
perigee height: | 417 km |
apogee height: | 422 km |
right ascension of ascending node: | 123.2095° |
argument of perigee: | 80.6848° |
revolutions per day: | 15.49049044 |
mean anomaly at epoch: | 344.2239° |
orbit number at epoch: | 27291 |
The dashed part of the orbit path shows where the satellite is in the earth's shadow,
|
|